Theta_e
321 319 319 316 312 313 315 316 317 316 308 310 311 310 311 310 311 312 300 303 301 290 289 291 292 295 294 293 294 291 292 291 291 291 294 293 293 292 292 290 291 290 288 288 283 286 289 288 291 292 291 291 291 291
322 320 318 316 311 313 315 317 317 316 309 309 309 311 314 312 314 313 298 298 300 292 290 291 291 292 292 293 290 289 292 292 292 292 291 290 292 290 289 290 287 290 290 290 289 289 287 288 291 290 290 290 290 291
321 321 317 315 311 314 316 317 317 313 308 312 312 312 314 315 315 315 301 299 296 290 290 290 289 292 294 293 293 292 288 290 290 287 288 288 290 288 289 289 288 287 285 289 289 287 287 288 288 289 290 290 290 290
320 321 317 315 312 314 316 317 317 311 310 312 316 318 318 317 313 314 307 302 302 294 293 290 292 292 292 294 294 293 292 291 288 285 284 285 290 286 287 287 288 287 286 287 288 288 289 290 290 289 289 290 290 291
321 321 317 314 312 315 316 317 316 311 311 314 318 315 313 313 311 311 306 302 304 304 290 289 290 291 292 293 293 293 292 288 285 287 286 287 286 286 284 286 286 285 287 289 289 288 290 289 288 289 289 290 290 290
320 319 317 314 312 315 317 316 316 313 314 315 315 310 309 311 314 316 299 301 300 299 290 290 288 290 290 291 291 291 290 287 285 287 286 286 285 286 286 288 286 285 285 287 290 288 288 288 289 290 289 290 290 291
319 319 316 314 313 315 317 316 316 313 314 315 313 308 307 311 316 307 303 298 300 301 289 287 288 289 289 290 289 289 288 285 285 284 287 288 287 284 284 287 286 287 287 288 289 289 290 289 290 289 290 291 290 290
318 318 315 313 313 315 316 316 315 314 314 311 304 304 308 310 300 296 294 296 298 298 291 287 283 288 289 286 288 287 284 283 283 284 285 288 285 283 286 286 287 288 288 288 288 289 289 289 289 290 290 289 289 289
317 317 314 313 314 316 316 315 315 314 312 307 305 309 312 309 296 294 295 296 299 300 288 288 291 291 288 285 285 287 284 284 283 285 286 286 285 287 288 286 288 288 289 289 288 289 289 289 289 289 289 288 288 289
316 315 314 313 314 316 316 315 315 312 308 305 311 309 293 292 292 296 296 295 291 288 286 288 286 289 287 286 283 285 283 283 284 286 285 285 287 286 286 286 288 287 288 289 289 290 290 290 289 288 288 288 288 289
316 315 314 313 315 316 316 315 311 303 304 312 295 293 291 292 293 293 293 297 287 290 286 287 288 288 287 287 287 286 282 280 285 288 287 288 287 287 285 285 288 289 290 290 290 290 291 290 289 288 288 288 290 290
316 315 314 313 314 316 316 314 304 310 311 307 296 292 294 293 294 298 295 290 287 294 288 289 289 288 287 286 286 283 284 283 287 286 286 290 288 287 286 286 287 289 289 289 290 290 290 290 289 288 288 290 290 290
316 315 314 313 312 316 316 312 309 312 304 302 296 294 297 294 299 302 301 291 289 289 288 289 289 287 287 285 284 285 285 287 287 288 291 289 287 286 286 286 286 289 289 290 289 289 289 288 288 289 289 291 291 290
315 315 313 311 313 316 315 307 310 312 315 299 302 300 303 299 299 298 298 293 290 289 290 289 289 290 288 287 285 286 284 288 289 291 291 289 286 286 286 287 287 287 289 289 289 289 288 288 288 289 290 291 290 290
316 314 310 309 314 315 310 309 311 314 307 303 302 312 301 292 285 286 285 287 288 290 289 288 287 288 285 285 286 286 287 288 290 291 289 287 286 286 286 286 288 287 288 288 289 289 289 288 288 289 290 291 291 290
315 310 311 308 315 310 309 308 308 304 293 298 296 296 291 289 287 287 288 289 290 290 287 288 285 285 284 287 286 289 289 291 292 288 286 286 286 286 286 288 289 289 289 289 289 289 289 288 288 290 290 291 291 290
311 313 309 306 307 306 305 308 301 302 307 293 292 290 290 293 292 289 290 291 291 292 289 286 289 291 286 285 288 289 291 291 288 286 285 288 287 286 287 288 288 289 288 287 288 289 289 288 288 289 290 290 291 290
316 310 305 303 302 302 303 297 298 297 294 290 293 292 291 291 291 291 290 291 292 288 288 289 287 286 289 288 289 290 289 286 285 286 286 287 287 288 289 289 289 288 288 288 287 288 288 288 288 289 290 290 290 290
312 305 304 304 305 301 292 291 291 292 289 290 291 290 290 290 290 291 291 291 290 290 290 291 290 290 290 289 288 289 288 287 286 286 285 287 289 289 289 288 288 288 288 288 287 288 288 289 288 288 289 290 290 289
306 304 303 306 306 291 290 288 289 291 291 290 290 291 291 290 291 291 291 290 290 291 290 290 290 290 288 288 289 289 288 287 288 288 286 284 287 288 288 288 288 288 287 287 287 287 288 288 288 288 289 290 290 289
304 303 303 302 292 289 289 289 289 290 289 290 290 290 291 291 291 291 291 289 290 290 291 288 288 286 286 287 288 288 287 289 290 289 287 284 285 287 287 286 287 287 287 287 287 287 288 288 288 288 289 291 290 289
303 300 298 294 288 287 288 288 289 289 290 290 290 290 291 291 291 290 288 290 291 290 289 288 287 286 287 287 288 288 289 289 288 287 287 286 283 284 285 286 286 286 287 287 287 287 287 288 289 288 289 290 290 289
300 300 291 289 289 288 288 288 290 290 290 290 289 290 289 290 289 289 290 290 289 288 288 287 286 287 286 287 287 287 288 288 287 287 287 288 288 287 287 287 287 287 286 287 287 288 288 289 289 288 289 290 290 289
299 287 287 287 288 288 287 288 289 290 290 289 289 288 288 288 287 289 290 289 286 287 286 286 286 286 286 287 287 287 288 289 288 288 289 287 286 286 287 287 287 287 287 288 288 288 289 289 288 288 289 290 290 288
289 285 288 287 287 288 288 289 289 288 289 289 288 288 288 288 288 289 289 288 288 287 286 286 287 288 288 287 286 286 288 290 287 286 286 287 287 286 286 286 287 287 287 287 288 288 289 289 288 288 290 290 290 288
286 286 288 288 288 289 290 289 289 290 289 288 288 287 288 288 288 288 289 289 290 288 287 287 287 287 287 287 286 285 286 288 288 287 287 287 287 287 286 286 286 287 287 288 288 289 289 289 289 288 290 290 289 288
287 286 287 288 290 290 290 290 290 289 288 287 288 288 289 290 289 289 289 289 288 287 287 287 288 288 287 286 287 287 288 288 288 288 288 288 287 288 288 287 287 289 290 289 289 290 290 289 289 288 289 290 290 289
288 289 289 290 290 290 291 290 289 288 289 288 289 289 290 290 289 288 289 287 288 287 287 287 287 288 287 287 288 287 287 287 287 287 287 287 288 288 288 289 289 290 290 290 290 290 290 289 289 288 289 290 290 289
289 290 290 291 291 288 288 289 289 289 288 290 289 289 286 286 285 287 286 287 287 287 285 285 286 287 287 287 287 287 287 287 287 285 285 285 287 288 288 289 289 289 289 289 289 289 289 289 289 288 289 290 290 288
288 289 289 288 287 286 286 286 287 288 285 286 285 285 285 284 284 286 286 286 287 287 287 286 285 286 285 285 285 286 287 287 288 288 285 285 287 288 288 287 287 288 289 289 290 290 289 288 288 289 289 290 289 288
287 288 286 286 286 286 286 286 286 285 285 286 288 289 287 284 284 285 286 287 287 286 286 284 285 285 285 285 285 285 285 287 287 287 287 287 287 287 287 287 287 288 289 290 289 290 289 289 288 289 289 289 289 288
287 287 288 288 287 284 284 285 285 286 286 287 286 284 285 286 285 284 285 286 286 286 286 285 285 285 287 287 287 288 288 288 288 288 287 287 287 287 287 287 287 287 288 289 289 289 289 289 289 288 289 289 289 288
287 287 288 287 286 286 284 285 285 286 284 284 283 284 284 285 285 283 285 286 287 286 286 287 287 287 288 288 288 288 288 288 288 288 288 287 287 287 287 287 287 287 287 287 288 289 288 288 288 288 289 289 289 288
Wind_Speed
55 50 48 47 46 42 37 32 27 23 18 13 13 12 14 16 21 23 16 10 10 4 4 4 4 4 3 3 5 5 4 3 3 3 3 2 2 2 1 2 3 3 4 2 3 2 3 4 1 2 3 5 8 12
57 53 50 49 48 44 40 34 29 25 21 18 18 16 15 19 21 25 17 30 27 19 6 20 21 16 7 3 6 2 3 3 4 4 0 3 2 1 2 2 2 1 4 3 6 3 0 2 4 3 3 6 6 11
60 56 52 52 51 47 42 37 32 28 25 21 19 17 16 16 12 22 36 31 23 10 8 5 4 10 9 8 6 4 2 4 2 1 3 2 2 3 3 4 2 2 2 2 2 1 4 3 3 2 3 8 12 16
61 58 54 54 53 49 44 39 35 32 28 23 18 16 15 17 28 32 23 19 17 13 4 2 7 6 11 4 4 4 13 9 9 4 3 3 3 2 2 1 2 2 4 4 2 4 3 1 1 3 6 12 14 17
63 60 57 57 56 51 46 42 38 35 29 24 21 20 24 25 26 29 29 19 12 5 4 3 2 12 11 10 14 16 17 8 2 3 3 1 2 3 1 1 3 5 6 4 3 5 3 4 3 7 4 7 16 14
64 63 59 60 58 54 49 46 41 37 32 28 26 26 27 28 25 11 6 14 12 11 5 3 1 4 9 15 18 16 11 8 3 3 2 1 1 2 3 3 3 4 4 6 5 4 4 3 5 5 7 13 17 16
66 66 62 63 61 57 52 48 42 38 34 31 28 29 25 17 11 10 5 9 10 8 4 4 2 3 3 4 5 7 8 4 3 2 2 2 1 3 2 3 4 8 6 5 6 5 2 2 3 12 10 14 15 15
68 68 66 66 63 59 55 51 45 40 37 35 33 26 22 23 24 15 17 13 11 14 9 4 1 2 2 2 2 6 2 2 5 2 1 2 1 1 3 5 4 6 6 5 6 4 3 3 6 9 11 13 14 14
69 69 69 69 66 62 58 53 49 44 41 38 34 28 17 8 6 8 17 16 15 10 4 3 5 4 2 1 1 3 2 3 2 2 1 2 1 4 6 7 9 7 7 6 6 3 2 1 4 7 8 11 7 13
69 69 72 71 68 65 61 57 52 48 43 40 25 8 3 4 23 10 4 6 9 9 4 3 2 3 3 1 2 2 2 1 1 1 1 1 4 3 4 7 10 9 11 13 5 3 3 2 1 5 6 9 12 15
71 70 74 73 71 68 64 60 55 54 45 12 6 3 15 9 3 6 3 3 2 3 2 3 3 4 2 3 3 0 2 0 2 2 2 2 4 4 6 7 15 19 16 10 6 5 5 3 3 5 9 11 14 18
73 72 73 73 73 71 68 64 63 41 19 15 26 18 7 4 3 5 2 1 1 5 2 4 4 3 2 3 3 2 3 2 2 2 1 3 4 4 8 9 14 18 16 11 9 7 4 2 2 4 7 10 14 17
73 73 76 77 75 75 72 68 57 40 48 23 8 5 3 1 3 8 8 4 2 6 5 4 3 3 3 3 3 3 4 3 2 0 4 5 2 5 8 9 13 17 13 12 8 5 3 1 2 4 7 9 12 17
75 75 79 81 79 77 73 68 52 50 24 4 6 7 8 5 5 5 6 6 4 6 11 6 3 3 2 3 3 5 2 2 1 3 6 3 6 9 8 14 15 13 15 12 8 5 3 3 3 4 5 8 11 16
76 77 80 79 81 77 75 63 57 41 6 4 5 8 6 4 3 3 4 4 3 10 8 5 4 3 2 4 2 4 2 4 6 5 3 3 8 10 9 11 16 16 13 11 8 5 2 2 4 4 6 7 10 14
76 76 60 78 81 80 73 63 31 10 4 5 3 6 5 5 2 3 5 6 9 10 3 3 4 4 2 6 4 8 8 7 4 3 2 7 11 9 13 19 21 18 15 11 8 5 2 2 2 3 5 7 10 14
66 21 74 83 81 79 68 31 9 3 5 6 3 3 3 5 6 5 5 7 24 9 4 4 6 7 4 3 4 5 6 3 3 3 4 9 13 14 21 21 18 16 13 10 7 5 3 1 2 3 6 8 10 12
43 65 84 82 80 61 27 5 5 4 3 2 5 6 2 2 10 6 5 17 8 2 4 5 6 4 6 9 5 4 4 2 2 5 7 17 22 27 25 22 19 17 13 9 7 5 3 2 1 2 4 7 9 12
57 82 88 88 70 23 4 3 1 5 1 3 5 3 3 2 4 15 11 22 8 10 7 2 4 5 4 4 4 4 6 4 5 5 9 23 29 26 22 19 17 14 12 9 7 6 3 2 3 2 4 6 7 10
83 87 88 76 56 7 5 3 5 4 4 4 4 4 4 2 5 7 12 6 3 3 3 3 4 4 4 4 3 5 6 17 12 10 7 13 24 23 21 19 16 12 10 9 7 5 4 3 2 1 2 4 6 9
78 72 70 48 8 10 4 4 3 3 5 5 7 4 4 4 7 8 6 1 2 3 3 3 2 1 5 10 17 21 21 25 12 12 11 7 20 21 18 14 12 11 10 9 9 8 6 4 2 1 1 2 2 5
51 55 23 13 6 5 3 1 6 4 4 6 3 3 5 4 4 4 2 1 3 3 3 3 3 4 9 11 19 23 26 25 25 22 21 25 14 15 16 16 14 12 10 9 9 8 6 4 3 3 2 1 1 4
46 24 9 6 5 4 3 1 5 4 6 5 3 5 3 2 3 7 3 3 2 4 7 6 10 13 18 21 25 27 30 30 22 24 25 26 24 21 17 16 15 12 10 9 8 6 6 5 5 4 3 2 1 2
33 7 5 4 4 5 4 3 3 4 4 4 4 5 6 4 4 2 4 3 2 10 9 14 21 14 16 18 15 19 24 28 27 26 25 23 20 16 16 16 15 13 9 7 8 7 7 7 5 5 4 3 2 1
9 3 6 6 3 5 6 6 4 4 4 4 5 4 5 4 3 4 5 6 7 7 9 19 20 20 10 7 15 19 26 30 26 21 22 22 20 15 14 13 13 12 11 11 10 9 7 7 7 6 6 5 4 1
8 2 3 4 5 5 7 7 6 8 7 4 4 5 3 3 5 5 6 9 10 8 11 12 12 8 11 22 19 17 25 26 27 24 24 23 22 22 21 16 13 13 14 13 11 10 9 9 8 8 8 7 5 3
5 4 2 1 5 6 6 5 13 6 5 6 6 6 5 6 6 5 7 16 9 21 26 26 26 24 22 22 22 26 26 24 24 24 20 22 19 15 16 18 17 11 9 12 13 11 11 12 11 11 9 8 6 4
3 3 8 8 5 5 14 6 4 4 4 6 7 5 8 11 4 5 8 24 29 32 28 28 26 27 29 31 30 28 26 23 18 17 18 17 16 15 14 12 10 9 10 11 11 12 12 11 11 10 9 8 6 6
3 5 13 24 13 6 4 3 3 3 6 8 4 4 4 2 1 12 17 31 34 34 27 25 24 29 30 30 31 33 33 30 28 12 7 5 11 16 17 16 16 15 13 11 9 7 9 9 8 7 7 8 8 8
4 1 4 4 5 4 2 1 4 8 3 2 4 4 4 4 8 25 31 32 31 29 30 29 32 32 29 30 27 31 31 29 25 26 16 14 19 16 19 20 19 18 15 13 12 10 9 10 9 9 9 10 11 10
3 3 4 4 4 5 8 10 7 3 2 4 10 16 12 5 9 10 22 28 29 30 29 26 24 28 30 27 27 25 23 27 24 20 18 15 16 17 17 16 13 13 13 13 13 12 12 11 12 11 12 14 13 12
4 4 10 15 10 4 2 3 3 7 9 15 8 4 7 5 5 2 15 30 30 27 28 31 29 30 36 36 35 32 30 30 29 28 25 19 17 18 16 14 13 13 12 12 13 13 14 15 14 15 16 16 15 15
13 13 13 8 4 5 4 4 4 7 5 4 5 3 4 4 4 3 16 22 31 35 35 37 37 36 35 32 30 27 25 21 21 26 28 26 22 18 17 17 17 16 15 15 15 15 16 17 18 18 18 18 18 17
Wind_Direction
196 193 196 199 194 191 187 186 180 176 176 172 162 160 165 164 146 142 90 107 106 93 45 18 30 117 94 111 136 180 81 337 54 83 139 193 186 201 98 199 202 182 133 158 100 58 331 188 325 98 238 286 291 315
196 196 195 197 193 190 186 183 179 173 166 160 150 143 145 140 136 125 95 93 98 81 114 95 71 59 64 92 123 33 149 152 174 96 162 119 162 113 134 260 44 287 190 180 176 213 262 232 217 245 260 279 299 309
193 195 196 195 192 188 185 180 176 171 163 154 149 149 143 135 135 132 114 106 88 97 75 52 358 30 64 70 90 116 304 152 115 127 149 135 128 135 165 240 141 231 165 159 66 162 235 246 268 237 303 299 302 304
189 193 194 193 190 187 183 179 175 170 164 157 150 148 145 131 132 128 115 108 98 106 103 333 32 29 16 67 73 85 132 114 110 75 93 122 132 181 195 169 199 188 129 165 273 275 287 112 185 314 305 311 310 318
189 191 192 191 188 185 182 178 174 168 165 157 147 139 137 135 128 112 94 80 100 101 132 137 97 37 49 84 95 107 114 99 84 66 70 148 121 123 21 70 237 190 172 163 203 206 163 259 289 324 305 321 321 320
185 189 190 189 186 183 180 177 172 165 159 153 146 142 138 135 128 114 57 52 88 107 104 105 21 33 56 78 78 68 64 65 78 109 135 137 222 112 128 213 229 177 178 166 178 184 182 261 300 336 333 321 321 322
183 188 188 187 185 182 179 175 170 164 158 152 148 144 145 144 144 76 130 128 103 87 88 92 51 356 16 39 46 39 46 63 80 107 75 153 139 106 153 220 187 181 172 167 154 143 110 126 287 318 328 329 333 339
181 187 186 185 183 181 178 172 167 163 155 150 143 137 127 114 92 78 74 85 81 94 72 107 312 18 25 40 53 4 44 34 17 126 34 126 51 80 253 225 171 159 153 158 164 134 143 280 308 334 341 346 339 341
178 182 185 183 182 180 176 170 166 161 155 148 139 130 102 63 59 113 86 71 62 71 114 93 131 185 107 52 70 43 37 47 285 82 58 93 217 233 223 169 170 171 173 169 154 126 130 239 303 329 337 347 335 334
177 176 182 181 180 178 174 169 165 158 152 142 131 75 44 76 121 103 54 26 25 9 35 90 128 122 112 94 10 74 13 73 79 275 43 153 258 254 219 177 163 162 147 140 135 164 167 212 267 317 320 338 340 335
173 172 177 177 178 176 173 169 163 150 143 144 86 81 127 107 83 42 55 77 339 23 43 125 125 131 230 121 145 52 162 309 70 270 122 269 270 238 172 156 165 161 157 164 160 167 179 201 264 315 335 347 352 352
172 170 169 168 173 176 172 169 158 154 151 146 118 116 120 64 52 91 54 24 104 203 142 127 156 132 143 116 100 323 105 47 231 129 69 257 246 193 153 149 153 155 156 158 165 167 174 210 302 329 337 350 353 357
169 168 164 164 169 175 172 168 162 154 132 115 83 86 119 23 117 167 175 248 211 167 172 159 123 120 102 71 68 99 92 189 111 95 239 233 209 159 160 144 149 159 155 157 159 164 173 113 48 6 353 355 352 0
166 166 163 162 171 174 170 163 162 150 150 97 141 142 198 166 212 180 178 161 170 134 140 122 101 114 126 77 134 105 236 98 193 242 237 222 185 167 158 152 141 161 164 159 158 155 119 51 30 18 3 1 352 357
164 163 159 161 169 171 166 162 161 163 125 141 137 197 175 119 78 124 120 97 121 144 131 109 75 96 92 102 89 109 88 235 217 232 229 189 153 150 150 153 152 156 160 160 163 159 123 60 30 5 2 355 354 357
159 154 162 163 170 164 159 157 158 153 66 134 139 105 108 76 120 124 121 127 145 144 102 69 119 95 176 132 128 201 164 222 232 211 195 138 144 151 155 161 163 158 157 161 161 155 120 54 7 360 354 355 360 3
154 153 164 157 158 155 153 150 139 141 181 142 136 81 120 96 147 155 145 162 159 152 146 132 131 183 110 108 200 188 206 209 180 164 153 152 154 153 159 159 156 159 159 151 155 152 147 193 344 360 349 358 4 6
167 156 153 150 146 147 154 125 124 148 136 155 127 133 106 89 133 136 127 148 148 165 137 169 125 154 183 172 204 209 186 100 87 148 138 141 151 158 162 161 165 168 161 158 159 166 180 190 293 314 346 352 6 6
158 154 152 151 153 140 111 91 133 104 97 108 90 70 85 100 83 118 133 153 112 122 116 118 141 176 193 205 188 159 154 153 150 140 127 153 158 158 162 164 166 170 174 176 181 185 178 212 259 308 342 357 5 10
153 154 152 154 156 105 95 140 121 114 131 124 98 86 83 126 119 138 133 133 115 114 124 197 205 201 169 182 165 157 146 140 141 135 137 144 157 157 162 167 175 180 183 189 195 196 202 233 258 290 348 350 1 13
148 153 147 148 91 86 111 117 117 129 109 92 116 83 87 96 124 142 153 94 108 146 192 214 229 188 138 138 141 136 144 153 157 152 149 148 160 159 160 166 172 178 180 184 191 202 220 248 227 242 288 343 11 10
148 144 131 115 79 74 107 182 113 91 73 111 107 99 105 156 138 137 112 49 171 174 175 172 180 155 133 136 141 147 144 139 134 129 137 144 137 157 172 176 176 186 194 202 212 220 230 218 210 215 231 259 302 2
143 141 77 82 95 83 80 177 78 99 123 135 101 102 121 130 128 136 165 181 179 171 155 151 147 144 127 133 135 138 145 141 140 147 155 164 172 178 181 187 195 199 202 211 204 203 200 198 207 208 213 221 243 351
134 68 82 99 93 100 117 81 99 109 100 121 109 107 145 135 156 187 172 184 173 145 158 138 131 120 119 133 139 146 152 156 152 158 166 167 171 184 193 199 199 203 202 194 196 199 205 212 207 212 218 221 217 332
91 38 91 81 102 113 114 133 150 109 113 129 116 137 152 153 143 179 182 172 165 156 148 151 152 149 145 133 139 148 164 164 152 153 170 180 178 177 188 197 203 207 205 204 206 206 207 209 206 213 221 221 210 198
83 112 112 134 137 128 147 141 158 137 120 104 114 132 154 143 162 199 180 167 161 158 161 160 150 140 148 159 152 157 168 169 170 170 180 185 189 188 187 188 200 214 211 209 211 210 209 211 210 216 217 212 207 194
94 106 111 101 122 118 103 85 123 102 100 139 155 150 152 163 197 187 149 160 153 166 167 163 162 160 154 157 164 168 167 170 178 184 187 189 192 194 194 188 195 198 200 206 209 208 212 211 212 215 213 211 204 209
83 118 137 144 114 116 116 102 101 129 146 156 131 141 151 173 166 165 157 158 159 164 165 166 166 162 162 167 169 166 164 166 167 161 158 171 182 188 190 191 190 190 192 193 199 205 209 210 214 211 208 217 214 222
77 106 119 113 107 63 66 103 119 132 148 153 111 139 142 83 105 131 146 150 151 149 142 143 153 168 164 165 167 170 166 164 151 140 142 161 179 200 197 201 202 199 193 187 184 191 200 209 214 209 212 219 226 217
63 46 98 61 63 82 101 124 118 127 75 91 111 108 96 71 79 132 136 143 147 156 161 161 158 157 154 156 162 173 177 177 178 170 169 185 195 193 197 200 201 198 195 196 194 190 190 195 196 199 203 214 221 218
96 86 71 70 85 84 98 97 94 91 81 93 116 119 118 117 93 114 152 152 148 145 146 148 153 160 158 162 166 169 185 189 189 189 189 193 186 182 182 181 178 184 193 198 200 202 201 203 209 211 212 218 222 225
65 99 115 112 108 97 60 62 64 98 105 109 102 122 128 113 92 123 150 147 147 154 163 162 163 176 181 181 183 186 188 188 195 199 202 201 192 191 188 185 186 189 195 202 209 212 213 216 218 220 222 222 222 225
90 98 109 106 93 86 20 83 76 93 55 62 29 28 49 78 110 130 160 163 168 166 170 176 180 181 185 189 192 196 200 202 212 217 217 219 217 214 211 208 207 208 210 211 213 216 219 222 225 227 227 227 225 225